Wind_Speed
32 32 31 30 29 29 29 28 28 27 25 24 23 21 21 21 20 19 19 19 18 18 18 18 18 17 16 15 15 15 15 15 14 14 14 14 13 12 11 11 12 12 11 11 11 11 11 11 10 10 9 9 9 9 9 9 9 9 9 10 10 9 9 10 11 13 13 12 13 14 13 13 15 15 16 17 16 16 18 21 23 24 24 24 24
33 32 31 31 31 30 29 28 28 27 26 25 24 22 21 21 20 19 19 19 19 19 19 18 19 18 17 16 16 15 15 15 15 14 14 14 14 13 12 13 13 13 12 12 12 12 11 11 11 10 10 10 10 10 10 10 10 9 10 10 10 10 10 12 12 13 14 13 12 14 13 13 15 15 15 16 17 18 19 21 22 22 22 23 22
33 31 31 31 31 30 29 28 28 28 27 25 24 23 22 22 21 21 20 20 19 20 19 19 18 19 18 17 17 16 16 16 16 15 15 15 15 14 13 14 14 14 14 13 13 13 12 12 11 10 10 10 11 11 10 10 10 10 11 11 11 11 11 13 13 13 14 14 13 13 14 13 15 15 16 17 19 20 21 23 22 20 20 21 22
32 31 31 31 31 30 30 29 28 28 27 26 26 25 23 22 22 22 22 21 20 20 20 19 19 19 19 18 18 18 17 17 17 16 16 16 16 15 14 14 14 14 14 14 13 13 13 13 12 11 11 11 11 11 10 11 11 11 12 12 12 12 11 12 14 14 14 14 13 13 14 15 16 17 17 18 20 20 22 23 23 22 20 20 22
32 32 31 31 31 30 30 29 29 29 28 27 27 26 25 23 22 23 23 22 21 20 20 20 20 20 20 19 19 19 19 18 18 17 17 16 16 15 15 15 15 15 15 14 14 14 14 13 12 11 12 12 12 11 11 12 12 12 12 11 11 10 10 11 13 14 15 16 15 15 15 15 17 17 18 19 20 21 22 23 22 20 20 19 21
32 32 31 31 31 31 31 30 29 29 29 28 27 26 25 24 23 23 23 23 22 21 20 20 21 21 21 20 20 20 19 19 19 18 18 17 16 15 15 15 15 15 15 15 15 15 15 14 13 13 13 14 13 12 12 13 13 12 12 11 10 10 10 12 13 14 15 16 17 16 15 16 17 18 18 18 20 21 21 21 18 16 17 17 18
32 31 31 31 31 31 31 31 30 29 29 28 27 26 26 25 24 23 23 23 23 22 22 21 21 22 22 21 21 20 19 19 19 19 19 18 17 16 16 16 15 15 15 15 15 15 15 15 14 15 15 15 14 14 13 13 14 13 12 11 10 10 10 11 12 13 14 16 16 16 15 16 16 18 18 18 19 20 20 18 16 14 15 16 17
32 31 31 31 31 32 32 30 30 29 28 27 26 25 26 26 25 24 23 23 23 23 23 22 21 21 22 22 21 20 20 19 19 19 19 19 18 17 17 16 16 15 15 15 15 15 15 15 15 15 16 16 16 15 14 13 13 12 12 10 10 10 10 10 11 13 14 15 16 15 16 17 18 19 19 17 17 18 17 17 18 19 19 19 20
32 31 31 31 31 31 31 30 29 28 27 27 26 26 25 25 25 24 23 23 23 23 23 22 21 21 21 21 21 20 20 20 20 21 20 19 19 18 18 17 16 16 15 15 15 15 16 16 15 16 16 17 18 18 17 16 14 13 12 10 10 11 11 11 12 13 14 15 16 16 18 19 19 19 17 15 16 19 20 21 21 22 22 23 22
33 32 31 31 30 30 30 29 28 28 28 27 27 26 25 25 25 25 24 23 23 22 22 22 22 21 20 20 20 20 21 21 22 24 23 21 19 18 17 17 16 16 15 15 15 15 16 15 15 16 18 20 22 22 22 21 20 18 16 14 13 12 12 12 13 14 15 16 17 17 18 19 19 18 17 16 17 20 23 23 23 23 23 23 23
33 33 31 30 29 29 29 28 28 28 28 27 27 27 26 25 25 25 24 23 22 22 22 22 22 21 20 20 20 20 21 21 24 27 27 25 21 17 16 16 16 16 16 16 16 16 15 15 15 15 18 20 22 23 24 23 22 21 20 19 18 16 15 15 14 15 16 17 18 18 19 20 20 19 18 16 15 18 22 24 25 25 23 20 20
32 31 30 29 29 29 29 28 28 28 28 27 27 27 26 25 25 25 24 23 22 21 21 22 22 21 20 20 20 20 20 22 25 28 28 28 26 21 17 15 15 16 16 17 16 15 15 15 15 14 15 17 18 19 20 22 21 20 19 18 19 19 19 19 19 18 17 18 19 20 20 22 22 20 16 14 15 18 23 25 25 25 24 21 20
30 30 29 29 29 29 28 28 28 28 28 27 26 26 26 26 25 25 24 23 22 21 21 21 21 21 21 20 20 20 20 21 25 28 28 29 29 26 21 17 16 16 16 16 16 16 15 15 15 15 14 15 16 16 17 20 20 19 19 18 19 19 18 20 21 22 22 22 22 23 23 22 23 21 15 13 16 20 23 27 27 26 26 24 24
28 29 29 29 29 29 28 28 28 27 27 26 26 26 27 27 26 24 23 22 22 22 22 21 21 22 22 21 21 21 20 21 24 27 28 28 28 27 24 20 18 18 17 17 16 16 16 15 15 15 14 15 16 16 16 18 17 17 17 17 18 17 16 16 17 20 23 24 26 28 27 23 20 20 19 18 20 21 24 26 27 27 29 28 28
27 28 28 28 28 28 28 28 27 27 26 26 26 26 26 26 25 24 23 22 22 22 22 22 22 22 22 22 22 22 22 23 24 25 26 26 26 26 25 22 20 19 19 19 18 17 17 16 16 16 15 15 16 16 16 16 16 15 15 16 16 16 16 16 16 17 20 22 26 30 29 24 20 21 23 22 20 21 22 24 25 27 29 30 29
26 27 28 28 28 29 29 28 28 27 27 27 27 27 26 25 25 24 22 22 21 21 21 22 22 22 23 23 23 23 23 24 26 27 27 26 24 25 25 23 21 21 20 19 20 19 18 18 17 17 17 17 17 19 19 18 17 16 16 17 17 17 17 18 18 20 21 23 26 28 27 24 22 23 24 23 22 21 21 22 23 23 24 27 27
27 27 28 28 29 29 29 28 27 27 26 27 27 26 25 25 24 24 23 22 22 21 21 22 23 24 24 24 24 24 23 24 27 28 29 28 26 25 24 22 21 21 21 20 20 19 20 20 19 18 17 17 18 19 20 20 19 19 18 18 18 18 18 18 18 20 22 25 26 27 25 23 22 23 24 24 24 22 19 19 19 18 18 19 20
27 27 28 28 28 28 28 28 27 27 26 26 26 26 25 25 25 24 24 24 23 22 22 22 22 23 24 24 24 23 23 24 26 28 29 29 28 27 24 21 20 21 20 20 20 20 20 22 22 20 18 17 18 19 20 21 20 19 19 19 18 19 19 18 17 18 19 19 20 20 20 20 20 21 22 20 18 17 16 18 17 15 15 15 17
28 28 28 27 27 27 27 27 27 27 27 26 26 25 25 24 24 23 23 23 23 22 22 21 21 22 22 23 24 25 24 23 26 29 29 30 30 29 24 21 21 21 20 20 19 19 20 21 23 25 23 20 20 21 22 21 20 19 19 19 19 20 19 17 16 16 14 14 16 17 16 17 18 18 17 14 13 13 14 15 14 13 15 17 18
28 27 26 26 26 26 26 27 27 27 26 26 25 24 24 23 22 22 22 22 21 21 22 21 21 21 21 21 23 25 25 24 25 28 29 30 31 30 26 22 21 20 19 19 18 18 19 19 21 25 25 24 24 24 24 24 22 20 19 19 20 20 17 16 16 16 15 16 19 20 19 18 16 13 11 10 10 11 12 11 11 12 15 18 19
26 25 25 26 26 26 26 26 27 26 24 24 24 24 23 23 22 22 21 21 21 21 21 21 20 20 20 20 21 22 23 24 25 27 29 29 30 31 28 24 21 20 19 18 18 17 17 17 18 20 21 20 21 22 24 25 24 23 22 22 21 20 19 20 18 17 17 19 19 18 17 15 11 8 7 7 7 8 8 9 10 12 15 18 20
26 25 26 26 26 26 25 25 25 24 23 23 23 23 23 22 21 21 20 20 20 20 19 19 19 18 18 19 20 20 21 23 24 27 29 29 30 32 30 26 22 20 19 19 18 17 17 17 16 17 18 16 15 17 18 19 21 22 23 23 23 23 24 25 19 14 14 17 16 15 13 10 8 7 7 7 7 7 8 10 12 15 18 19 20
26 25 25 26 25 25 25 24 24 23 23 23 23 22 22 21 20 20 20 19 19 19 19 19 19 19 19 20 20 21 22 23 24 26 28 29 30 31 31 29 26 23 19 19 19 18 16 16 16 16 17 16 14 14 15 16 17 19 20 21 22 24 24 23 16 10 11 14 13 11 10 8 7 8 7 7 9 11 13 15 16 16 18 19 19
24 24 24 25 24 24 24 24 23 22 22 23 22 21 22 21 20 20 20 19 19 20 20 20 20 20 20 20 20 21 22 23 24 26 28 29 29 30 30 29 28 26 21 18 17 16 15 15 16 16 15 15 14 13 14 15 16 17 18 18 20 23 22 19 14 9 8 9 8 7 7 7 6 6 6 8 12 15 16 16 14 14 15 16 17
23 23 23 23 23 23 22 22 22 22 22 23 23 22 22 21 21 20 20 21 21 20 19 20 20 19 19 19 20 20 21 21 22 25 27 27 28 29 29 28 28 27 24 20 17 15 14 12 12 13 14 14 13 13 14 15 15 16 18 19 20 21 21 17 13 9 7 6 6 5 5 4 4 4 6 9 12 13 13 13 13 13 13 14 17
22 21 22 22 22 22 22 21 21 22 22 22 22 21 22 21 21 21 21 21 21 20 20 20 20 20 19 19 20 20 20 21 20 21 23 24 26 28 29 27 26 26 26 24 21 18 16 14 13 13 14 14 13 14 15 15 15 16 17 17 18 18 17 15 12 9 7 6 5 5 4 4 5 6 7 9 10 10 11 12 13 13 14 15 19
20 20 20 21 21 22 21 21 21 21 22 22 21 21 21 21 21 21 21 21 21 21 20 20 20 20 19 19 20 20 20 20 20 18 19 19 22 25 28 28 27 27 29 30 28 23 21 21 19 17 15 14 14 14 14 15 16 16 16 17 18 17 15 12 9 8 8 7 6 5 5 5 6 7 7 8 8 9 10 12 13 14 15 16 17
18 19 19 19 19 20 20 20 20 20 20 21 20 19 21 21 21 21 22 21 21 21 22 21 21 20 20 19 19 19 19 19 20 18 17 17 17 20 25 28 29 29 30 30 28 23 20 18 17 15 15 15 16 16 16 18 19 20 20 20 18 16 14 11 10 10 9 7 6 5 5 5 6 6 7 7 7 9 10 11 12 13 14 15 15
17 17 18 18 17 18 19 19 19 18 18 19 18 17 19 20 20 20 20 21 22 21 21 21 21 21 21 20 19 18 18 18 19 19 18 16 15 15 18 21 24 27 27 26 24 21 18 16 16 16 15 16 17 19 19 19 21 22 21 18 15 14 13 12 11 10 9 7 5 4 4 4 5 5 6 6 6 7 8 9 10 11 13 14 14
15 16 16 16 16 16 17 18 18 17 17 17 16 16 17 17 18 18 17 19 23 23 19 18 17 17 18 17 16 16 14 11 11 15 16 17 17 16 15 15 17 20 23 24 24 21 18 18 19 18 18 18 19 19 19 19 20 20 18 16 15 15 15 14 12 10 9 7 6 4 3 3 3 4 4 5 5 5 6 7 8 9 11 12 13
14 14 14 14 15 15 14 14 15 16 16 15 14 15 15 14 15 17 15 14 19 23 22 20 17 15 14 11 9 12 12 9 8 11 13 16 18 17 16 15 15 16 18 22 23 20 17 18 19 19 19 20 20 20 20 20 19 18 17 17 17 17 16 14 12 11 10 8 7 6 5 4 4 3 3 4 5 5 5 6 7 8 10 10 11
12 12 12 13 13 13 13 13 13 14 16 13 11 13 15 12 11 14 14 12 14 18 22 22 20 18 17 13 9 9 11 12 12 11 11 13 14 14 15 17 16 15 15 19 20 18 17 18 19 20 20 20 21 21 21 20 20 19 18 17 17 16 15 14 13 12 11 9 9 7 7 6 5 4 4 4 5 5 5 6 6 7 9 9 10
11 11 12 12 11 12 13 13 13 13 15 14 12 14 17 15 12 11 11 10 11 13 15 18 19 19 19 18 15 12 12 13 13 13 12 12 11 11 13 15 15 15 16 17 17 16 17 18 19 19 19 19 20 21 19 18 18 18 17 16 15 13 13 14 13 12 10 10 9 8 7 7 5 5 5 5 5 5 5 6 6 6 8 9 10
7 6 8 9 11 12 11 11 12 13 14 14 14 15 16 16 13 10 10 9 9 7 6 9 12 15 16 16 15 14 14 14 13 12 11 10 9 10 13 14 15 16 16 15 14 13 14 15 16 17 17 17 19 18 17 16 15 13 12 12 11 10 10 12 12 11 10 10 10 8 7 6 5 5 5 5 5 5 5 5 5 5 7 8 10
5 5 5 7 8 9 9 10 11 11 12 13 14 14 14 13 10 9 9 10 8 7 4 2 3 6 9 10 10 10 11 11 10 9 9 9 11 14 16 16 16 14 12 11 13 14 15 17 18 18 18 18 18 16 16 15 14 12 11 11 10 10 10 10 10 9 10 10 9 7 6 6 5 5 6 5 5 5 5 5 5 5 6 8 10
3 4 5 6 6 8 8 8 8 9 10 11 12 11 11 10 10 9 9 9 12 13 11 11 11 9 7 7 8 9 10 11 11 12 13 15 17 18 17 15 13 12 12 13 16 17 17 17 17 17 16 16 15 14 13 13 13 13 13 12 11 11 10 9 8 8 8 8 7 6 6 6 5 5 6 5 5 5 5 5 6 6 6 8 10
9 7 5 2 2 5 7 6 7 9 10 10 10 10 10 10 11 12 12 13 15 14 13 15 17 17 17 16 16 17 19 20 21 21 21 21 20 18 17 17 16 14 14 15 15 16 16 15 14 13 14 13 13 13 13 12 14 15 15 14 12 10 10 10 10 8 6 6 7 7 6 6 5 5 5 5 4 4 5 5 6 6 6 8 9
15 14 12 8 4 3 6 7 7 9 10 9 9 10 11 12 12 14 15 15 16 16 15 15 15 18 20 22 24 27 29 28 27 24 21 20 17 16 18 20 20 17 16 15 14 14 13 12 11 11 11 11 11 12 12 12 12 12 12 12 11 10 9 10 9 7 6 6 7 7 6 6 5 4 5 4 4 5 5 6 7 7 7 8 8
13 13 12 10 7 4 5 7 7 8 7 7 8 10 12 14 15 16 17 17 16 16 16 16 15 17 20 22 25 26 26 23 21 19 18 17 16 15 17 19 19 18 17 16 14 14 13 12 11 11 11 10 10 9 10 10 10 9 8 9 9 9 8 8 7 6 6 6 6 6 6 5 4 4 4 5 5 6 6 7 7 8 9 9 8
11 11 11 10 8 5 5 5 6 7 6 6 8 10 12 14 15 15 17 18 17 16 17 17 17 19 21 21 20 19 18 17 17 17 16 15 14 14 14 15 16 17 18 17 15 15 15 13 12 10 10 10 10 10 9 9 10 9 8 7 7 7 7 6 6 6 6 6 6 5 5 4 3 4 5 6 6 7 8 8 8 8 9 9 9
9 10 11 12 11 10 9 9 8 8 8 8 9 10 11 12 13 14 16 18 18 18 17 17 17 18 19 18 17 17 17 17 17 16 15 14 13 13 12 13 14 15 16 16 15 14 13 12 10 10 10 10 10 10 10 10 10 9 8 7 6 6 5 5 5 4 4 5 5 4 4 4 4 5 6 7 8 10 10 10 10 10 10 10 10
10 9 9 10 11 11 10 11 11 11 11 11 10 10 10 10 11 13 14 16 17 17 17 17 18 19 18 17 19 20 19 17 16 17 16 14 13 13 13 13 13 14 14 13 12 12 12 12 11 10 10 9 9 9 8 7 7 6 5 6 5 4 5 5 5 3 3 4 4 3 4 5 6 7 8 9 10 11 11 11 11 11 11 11 11
10 10 10 9 9 9 8 9 10 12 12 12 11 10 10 9 10 12 13 14 15 16 18 20 23 25 23 21 21 22 21 19 17 18 17 16 16 17 15 14 13 13 13 12 12 12 13 15 15 14 13 13 12 11 10 8 7 6 5 5 3 2 1 1 1 1 1 2 3 4 5 6 7 9 11 11 12 12 12 11 11 11 11 11 11
9 9 10 10 10 9 9 9 11 12 12 13 13 13 11 11 12 13 13 14 15 16 17 20 24 25 23 20 19 20 20 19 18 17 17 18 18 18 16 15 15 15 15 15 14 14 15 17 17 17 16 15 14 14 13 12 11 10 9 8 7 6 5 3 2 2 2 2 3 5 5 6 7 9 11 11 11 11 11 11 11 11 11 11 11
9 9 9 9 10 10 10 10 11 12 12 13 14 14 13 13 13 13 13 14 14 14 15 17 19 21 19 17 17 18 18 18 18 18 17 16 15 14 13 13 14 15 16 17 17 17 17 18 18 17 17 16 15 14 13 12 12 11 11 10 9 8 7 6 5 4 3 3 3 4 6 6 7 8 9 9 10 10 11 11 12 12 12 12 12
9 9 8 9 9 10 10 10 11 12 12 13 13 13 13 14 14 14 13 13 13 13 14 15 16 17 18 17 18 20 20 19 18 18 16 15 14 14 14 14 15 16 18 18 18 19 19 19 19 18 17 16 15 14 13 12 11 10 10 9 8 6 5 5 3 2 2 2 3 4 5 6 7 7 8 9 10 10 11 11 12 12 12 12 12
10 10 9 10 10 10 10 10 10 11 12 13 13 13 13 13 14 14 14 15 15 15 15 14 14 15 15 16 18 21 22 21 19 17 17 17 16 16 16 16 17 19 19 18 19 19 19 19 19 18 17 16 15 13 13 11 10 9 7 6 5 3 2 1 1 1 2 3 4 4 4 5 7 7 7 8 9 9 10 11 12 12 12 12 13
11 11 11 11 11 12 12 11 11 12 12 12 13 13 13 13 13 12 13 15 16 16 16 17 17 18 18 18 21 24 25 25 22 20 19 19 19 18 17 17 17 18 19 20 20 19 19 18 18 17 16 15 14 13 12 11 10 8 7 5 4 3 2 2 2 2 3 4 4 4 4 5 7 7 7 8 8 9 10 11 11 12 13 13 14
14 14 14 14 14 14 14 13 12 12 12 12 12 13 13 13 13 13 13 13 14 14 14 15 17 18 18 19 20 21 23 24 24 23 21 20 20 20 21 20 19 19 20 19 19 18 18 18 18 17 16 16 15 14 13 12 10 9 8 7 6 5 4 3 4 4 4 4 4 5 5 6 7 7 7 7 8 9 9 10 10 12 13 13 14
18 18 18 18 18 18 19 18 16 14 13 13 13 13 13 13 13 13 12 12 13 15 15 16 16 18 19 21 22 24 25 26 26 26 25 23 22 23 23 23 22 21 20 19 18 17 17 17 17 16 16 15 14 14 14 13 12 11 10 8 7 6 6 5 5 5 5 5 5 6 6 7 7 8 8 8 8 9 9 10 11 12 12 13 13
22 22 22 22 21 21 21 22 20 18 17 16 15 15 15 15 15 14 14 14 15 16 17 17 17 17 19 20 21 23 23 21 21 21 23 23 24 24 24 23 23 23 22 21 19 17 17 16 16 15 15 14 14 14 14 14 13 12 11 9 7 7 6 6 6 6 6 5 5 6 6 7 7 8 8 9 9 10 11 12 12 12 12 13 12
Wind_Direction
187 189 191 194 195 196 198 201 204 206 207 207 207 207 207 208 208 207 207 207 207 208 210 212 213 214 216 216 216 218 219 220 221 221 222 219 216 218 217 214 219 225 230 232 232 230 228 228 231 233 234 235 237 241 240 235 232 234 235 236 238 237 233 240 258 272 277 276 276 279 279 277 275 272 272 278 280 281 285 288 290 290 286 282 279
188 188 189 192 194 195 196 198 200 202 203 203 204 206 206 207 207 206 207 207 207 208 210 212 213 214 215 215 214 215 214 215 218 219 219 218 215 216 216 215 217 222 227 230 232 232 231 231 231 231 232 233 236 241 243 240 238 236 235 237 241 240 233 236 251 268 275 277 276 278 278 274 273 273 272 275 279 278 277 277 278 278 278 279 274
189 187 188 190 192 192 194 196 197 198 200 201 203 205 206 206 206 205 207 208 207 209 211 212 213 212 213 213 213 213 213 213 215 217 217 217 216 217 217 216 216 219 223 227 229 230 232 232 232 232 230 230 234 240 243 242 242 242 242 242 245 246 239 236 243 258 273 279 279 279 280 277 275 275 273 272 276 277 277 278 276 270 269 271 271
189 187 188 189 190 191 193 194 196 198 200 202 203 205 206 205 205 205 207 208 208 209 211 212 212 211 211 212 211 212 212 212 213 214 216 216 217 218 218 217 219 220 223 227 229 230 231 233 234 232 230 231 235 239 241 239 238 241 243 243 244 247 245 241 243 255 272 282 282 281 283 281 277 277 277 275 275 273 272 275 276 274 273 273 273
189 188 188 189 189 190 192 194 196 199 201 203 204 205 206 205 204 205 206 208 208 208 210 211 211 211 210 211 212 212 212 212 212 213 215 217 217 218 219 219 221 223 226 228 229 230 232 234 235 233 230 232 235 238 240 236 234 238 241 240 242 248 254 255 255 262 271 279 284 286 285 284 281 278 276 275 276 274 272 274 276 278 279 280 278
188 188 188 189 189 190 192 194 197 199 200 202 204 204 205 205 204 204 205 207 208 208 209 209 209 210 211 212 212 212 212 212 212 213 214 216 217 218 219 220 222 224 226 228 229 230 233 234 235 233 232 233 235 238 238 235 235 239 240 239 241 247 255 259 261 265 269 276 283 286 285 284 282 279 275 272 273 276 279 282 282 280 281 283 282
188 188 189 189 189 190 191 194 196 198 199 201 203 203 204 204 204 204 205 205 206 208 209 208 208 209 211 213 213 212 212 212 211 212 213 214 215 217 219 220 222 225 227 229 231 231 233 234 233 233 233 233 235 237 239 238 240 244 242 239 240 245 251 257 263 266 270 276 281 283 285 284 281 279 277 273 271 272 279 288 293 292 288 286 283
188 188 189 190 189 190 191 192 194 197 197 199 201 202 202 203 204 204 204 205 207 208 209 208 208 209 211 213 214 213 212 212 211 211 212 212 214 216 219 221 223 225 227 229 231 232 235 235 235 236 235 234 235 235 236 238 242 247 247 241 238 243 251 260 267 269 271 275 278 280 282 281 277 276 276 275 276 278 283 292 296 299 298 293 290
187 187 189 190 189 188 189 190 192 194 195 196 198 200 200 200 201 202 203 205 207 209 210 210 209 210 211 212 212 212 213 213 212 211 210 210 212 216 218 220 223 225 227 229 231 232 235 236 238 238 236 237 241 243 243 242 243 247 249 245 242 248 255 259 263 267 269 271 273 274 274 273 271 272 274 278 284 291 298 300 298 299 302 300 297
186 187 189 190 188 186 186 187 190 191 193 194 195 197 198 198 199 201 203 205 207 208 209 211 211 211 210 210 210 211 213 214 215 215 214 211 210 213 217 219 221 223 225 227 230 232 234 237 239 239 239 243 250 257 260 259 258 258 255 250 247 249 253 252 254 260 264 267 269 269 269 271 272 275 281 288 292 297 303 303 301 303 305 303 301
186 187 188 187 185 183 184 186 188 190 192 192 193 194 196 197 198 200 203 205 206 207 208 210 212 213 212 211 211 211 214 216 219 222 223 220 214 210 213 217 219 221 223 225 229 232 234 235 237 238 240 245 253 263 268 268 267 266 264 259 254 250 249 249 251 256 259 262 266 268 271 274 275 277 285 294 300 301 301 299 300 302 303 303 303
185 185 185 183 182 182 183 185 187 189 190 191 191 193 194 196 198 200 202 204 204 206 208 209 211 214 214 215 214 215 216 218 222 227 230 229 224 217 214 217 219 221 224 226 228 230 231 231 233 235 236 240 246 256 267 273 273 270 269 267 263 257 252 248 249 251 255 262 266 268 270 273 276 279 289 300 301 298 297 296 297 298 299 298 297
185 184 183 182 182 182 183 185 187 188 189 190 190 192 194 196 198 200 202 204 204 206 208 209 211 213 215 217 218 220 222 222 226 231 233 234 232 226 220 220 223 224 225 226 228 228 227 227 229 231 233 235 237 243 255 267 273 275 275 273 272 269 261 253 250 248 251 258 263 264 263 266 271 279 291 300 295 294 296 296 297 299 298 296 294
184 183 183 182 182 183 183 185 188 188 189 189 190 192 195 198 199 201 202 204 204 207 208 209 211 212 214 217 221 224 227 226 229 234 236 236 236 232 226 224 228 229 228 228 228 227 225 224 225 227 229 231 233 237 245 253 260 267 270 271 271 272 269 265 258 250 248 249 253 256 256 257 265 279 291 295 290 290 293 294 297 299 297 294 293
184 183 184 184 183 183 184 186 188 188 188 190 192 195 198 199 201 202 204 206 207 208 209 210 211 212 214 217 222 226 229 229 230 234 237 237 236 234 229 226 228 231 231 230 230 229 227 225 226 228 228 228 229 233 240 247 252 257 258 260 261 261 261 260 256 257 258 255 256 260 261 261 270 284 291 294 290 288 289 291 292 294 296 297 296
184 184 185 186 185 185 186 187 188 189 190 192 195 198 200 201 202 203 205 208 209 209 210 212 212 214 216 217 221 226 228 228 228 231 235 236 234 232 228 225 227 230 231 231 230 230 229 226 227 228 228 229 231 233 238 244 251 258 260 260 259 257 257 254 251 257 267 270 271 272 272 274 283 289 291 292 292 291 290 289 288 289 293 298 300
184 185 186 187 187 187 188 189 189 190 192 194 197 199 200 201 201 202 204 208 209 209 210 212 214 216 217 217 220 224 227 228 228 231 233 233 230 227 223 222 225 228 230 232 230 230 230 227 226 228 229 231 232 236 241 245 249 256 262 263 262 259 258 258 256 258 264 271 273 274 276 282 287 289 291 295 297 297 290 281 282 286 288 291 295
185 186 188 189 187 187 189 189 190 191 193 196 199 199 200 200 201 202 204 208 210 210 210 212 214 216 218 218 219 221 226 228 228 230 232 232 229 225 219 218 223 226 228 231 230 231 232 229 227 227 229 231 233 236 242 245 245 251 258 262 263 261 259 261 262 263 266 272 275 277 284 290 291 291 293 297 300 299 288 281 284 286 284 286 293
188 188 189 188 188 188 189 190 190 192 194 197 199 199 200 201 202 203 206 209 211 211 212 213 216 217 219 220 220 221 226 229 229 230 232 232 230 224 217 216 221 223 226 228 228 229 232 232 232 230 229 230 231 234 240 243 241 245 254 259 260 261 262 263 266 267 270 277 286 291 294 294 295 299 303 303 304 306 302 297 293 286 286 292 297
189 189 188 187 187 187 188 190 191 194 195 196 198 199 200 202 203 203 206 209 211 213 214 215 217 219 220 221 221 222 225 228 230 231 231 232 231 224 216 216 219 221 223 226 226 228 229 231 235 236 235 235 235 236 240 243 242 244 250 254 257 261 265 268 269 269 270 278 288 292 292 294 298 301 300 298 302 305 304 298 288 285 292 298 300
186 187 186 186 187 188 189 191 192 194 195 195 196 199 201 203 204 204 207 209 211 213 215 216 220 222 222 223 223 224 225 226 229 231 231 232 232 226 218 216 218 220 222 224 226 229 231 232 235 236 236 238 238 237 238 243 245 245 247 250 253 258 261 263 266 270 274 281 287 290 293 300 305 300 290 291 295 295 294 292 293 298 300 298 298
183 184 185 186 188 189 190 191 192 194 195 194 196 199 201 204 205 205 207 209 210 212 214 216 220 224 224 225 226 227 227 226 228 231 231 232 233 229 223 218 216 217 222 227 230 232 234 234 235 234 233 236 238 235 234 237 240 242 245 248 250 252 254 258 265 274 279 282 288 293 297 303 305 300 300 304 305 307 308 306 306 304 299 293 292
181 182 183 185 187 188 189 189 190 193 194 194 195 197 199 202 204 203 206 208 209 212 216 218 222 226 228 229 229 231 232 231 230 232 232 233 234 232 228 223 218 217 222 229 231 233 236 236 233 229 228 232 235 233 231 230 231 235 240 243 247 250 253 257 264 268 269 274 283 292 294 292 294 302 313 320 318 319 321 317 312 307 299 294 293
179 180 182 183 185 187 188 188 190 192 192 191 193 195 196 197 199 200 203 207 211 216 219 220 223 227 229 231 230 229 231 233 234 234 234 234 234 234 232 228 223 220 222 229 232 232 231 230 228 224 223 227 231 231 230 229 229 231 233 235 241 248 252 255 255 244 239 244 248 255 262 268 282 300 314 322 322 323 323 320 314 309 302 300 301
178 179 180 182 184 185 186 188 190 191 190 190 192 194 194 195 196 198 201 208 214 217 218 219 220 223 227 229 228 228 228 230 233 235 236 237 237 235 234 232 228 224 222 226 233 234 232 228 223 218 217 222 225 225 225 225 225 225 228 229 234 241 245 244 238 230 224 225 230 239 253 264 284 305 317 327 331 330 326 321 317 316 316 316 316
177 178 180 182 184 185 187 189 190 191 191 192 194 195 195 196 197 198 201 208 213 215 216 217 217 220 223 226 227 228 228 227 229 231 232 234 236 236 235 233 231 228 223 223 226 231 235 235 228 221 221 221 221 219 217 215 213 214 217 217 219 227 233 232 230 238 253 264 269 277 286 295 311 324 332 339 340 332 327 326 326 330 333 331 327
177 180 182 184 185 188 189 190 191 192 193 195 197 198 199 199 199 198 201 205 208 210 213 215 216 217 220 223 225 227 227 227 227 225 221 222 228 232 232 230 228 225 221 220 222 224 228 230 228 225 222 215 212 212 208 200 195 193 192 195 200 210 220 226 233 249 265 277 283 287 300 313 326 335 341 345 341 334 336 338 336 336 336 331 326
182 184 185 186 188 191 193 193 193 193 195 197 199 200 201 202 203 202 202 203 204 207 210 213 215 216 217 219 222 224 225 225 225 222 217 212 213 220 222 221 221 220 218 216 216 215 215 216 214 209 201 193 188 187 185 181 180 177 177 183 193 202 209 217 230 240 247 260 274 285 307 319 328 337 339 340 339 339 342 342 335 330 328 325 320
185 186 187 189 192 193 193 195 196 196 195 196 198 200 200 200 203 206 206 206 209 212 214 214 215 218 221 222 223 225 227 227 225 224 223 217 210 210 210 208 209 214 215 210 204 199 197 197 193 184 177 174 170 169 170 170 171 173 174 179 188 196 201 207 216 221 225 237 255 273 295 306 317 328 329 329 335 336 335 334 327 321 319 316 314
186 188 189 191 193 193 192 195 197 199 199 195 192 192 194 196 198 202 205 206 210 216 221 220 219 222 224 225 225 225 228 231 224 219 221 220 216 214 211 201 197 206 210 203 193 188 188 192 191 182 174 171 168 166 167 165 166 172 176 179 183 188 192 197 203 207 210 217 226 237 250 264 285 303 304 311 321 321 317 314 310 310 313 313 312
185 189 190 190 191 191 194 195 193 196 202 199 185 183 190 194 197 203 207 205 204 211 219 226 227 225 222 223 228 227 227 230 226 217 216 218 217 219 219 208 200 204 204 195 189 188 189 191 190 184 180 177 173 170 169 167 168 172 176 180 182 185 189 195 198 198 199 201 204 210 215 222 238 254 266 288 299 295 293 294 294 300 308 309 312
185 189 191 190 188 189 195 197 193 196 202 200 191 193 197 192 190 202 213 214 206 206 214 223 228 228 225 226 233 235 233 237 238 236 232 225 222 223 219 211 211 215 204 190 188 190 192 191 187 183 182 179 173 169 168 167 170 173 177 180 182 185 190 194 192 190 191 192 193 197 202 206 219 233 245 263 274 277 283 284 287 299 307 309 314
175 181 183 182 183 189 195 196 194 199 202 200 201 207 208 206 201 195 198 210 215 214 217 222 228 233 234 234 234 239 244 246 248 251 248 237 228 223 216 211 213 209 194 187 192 195 193 192 188 183 181 176 168 164 165 169 174 179 182 183 180 180 186 189 186 184 186 185 185 191 199 205 215 228 237 248 257 264 274 278 283 300 311 314 320
145 153 165 172 177 183 187 189 193 199 203 204 206 209 212 215 210 186 177 194 206 210 222 228 230 235 237 234 232 234 239 243 248 248 242 230 217 206 196 189 186 183 181 189 197 190 178 174 171 169 167 162 158 158 160 164 170 172 169 168 164 163 174 182 184 183 180 179 184 192 198 204 215 227 233 243 256 260 265 272 280 298 314 319 322
125 125 143 166 176 177 178 182 187 189 191 195 201 205 207 206 194 177 186 192 167 135 122 136 189 217 222 217 212 211 212 217 221 218 212 202 189 181 170 159 157 162 166 172 171 161 153 153 155 156 153 150 150 154 154 154 155 150 148 154 160 164 171 178 185 186 180 178 183 190 195 203 217 231 235 242 255 264 275 285 287 298 313 318 320
124 145 154 171 183 183 179 174 170 172 177 184 191 191 187 184 176 170 171 153 127 118 115 109 108 119 139 155 165 170 168 166 162 159 159 159 159 158 149 140 143 147 138 136 142 143 143 144 144 143 144 142 141 143 146 149 151 151 153 159 165 168 170 172 177 183 182 179 181 188 199 209 220 235 244 247 255 269 286 297 298 304 317 319 318
37 42 51 70 168 171 155 136 138 157 167 172 175 171 165 162 157 146 136 127 122 123 122 117 113 111 112 120 131 135 135 136 136 136 141 145 145 141 135 135 140 136 124 123 128 130 131 133 133 136 142 143 140 140 142 148 155 158 160 161 162 166 171 172 172 175 180 183 186 194 208 216 221 237 253 260 271 284 296 303 305 310 317 317 319
39 38 39 35 33 108 125 118 130 151 157 158 163 164 156 148 140 133 130 130 129 128 131 131 126 119 117 123 129 129 129 130 130 129 132 134 131 126 128 133 133 125 119 121 124 123 125 129 133 138 143 145 144 143 143 146 154 159 164 167 168 170 174 173 171 173 185 193 194 199 211 218 223 244 261 269 283 295 299 304 310 315 318 321 328
40 43 49 46 41 72 121 130 138 145 146 150 154 148 140 138 136 134 135 137 137 137 139 138 133 130 130 132 133 132 129 127 124 120 118 118 115 112 114 117 118 117 118 121 125 127 129 133 137 142 148 150 150 145 139 140 147 153 160 168 172 172 171 172 173 180 193 201 201 203 212 221 233 257 269 276 290 300 300 302 309 314 315 319 328
38 43 47 43 41 65 98 109 118 123 120 125 135 135 134 136 136 135 137 139 141 142 142 139 137 138 140 141 143 139 130 122 118 116 115 114 111 107 105 105 109 115 118 122 127 132 135 137 139 140 140 144 146 145 142 144 150 155 158 163 169 173 175 176 181 189 198 204 206 211 220 229 247 270 278 285 294 297 296 298 304 308 309 314 321
34 44 43 35 33 44 56 59 67 81 91 100 114 123 127 132 135 135 134 133 133 133 132 129 130 136 142 145 146 139 127 120 118 116 115 115 110 103 98 98 101 108 114 119 124 128 127 128 128 126 125 129 135 139 145 150 154 159 164 166 166 171 176 180 188 199 211 216 219 226 237 246 265 282 286 290 295 294 293 297 303 305 305 307 313
26 34 37 37 38 44 50 54 59 66 72 80 91 102 110 120 128 130 128 126 126 125 120 113 115 125 134 138 135 127 118 112 111 109 107 106 102 97 94 92 94 101 107 111 114 117 118 118 117 114 116 120 122 124 135 147 152 156 164 169 176 187 197 202 209 222 234 236 238 251 266 270 274 280 282 286 293 296 296 298 301 301 301 303 307
26 30 33 42 50 53 56 62 66 66 68 72 77 82 89 101 109 114 116 116 116 116 113 110 111 115 118 119 120 116 108 101 101 103 103 104 106 106 102 98 95 94 94 96 101 108 112 113 112 108 107 111 113 114 118 127 131 122 111 115 128 135 150 195 240 294 308 296 287 283 280 278 279 282 286 289 293 296 297 296 297 300 302 304 303
33 35 38 45 52 57 60 65 71 74 78 83 86 83 81 87 93 97 101 103 104 107 109 110 111 111 109 106 107 106 101 97 97 97 99 103 107 109 108 108 107 104 99 99 102 106 108 109 108 106 104 106 109 109 108 112 119 118 112 110 113 113 106 97 85 74 46 359 331 310 299 293 289 288 291 294 294 294 295 298 300 302 303 303 302
40 40 45 51 53 57 61 65 71 78 82 86 87 85 84 86 88 90 93 96 97 98 100 104 106 106 103 99 97 96 97 99 100 100 99 98 98 98 99 103 108 112 112 111 111 112 111 110 109 107 105 103 103 105 106 109 113 115 115 115 114 113 110 104 96 91 82 56 5 331 317 311 307 304 304 303 300 298 299 302 303 302 301 302 302
48 48 55 62 63 64 66 67 72 79 83 86 87 85 84 87 89 90 91 93 93 93 94 97 101 102 100 98 97 97 98 100 100 99 97 93 93 97 101 104 110 116 117 117 117 116 112 110 108 107 105 104 104 104 105 107 109 112 115 117 116 113 109 101 88 66 45 36 10 344 331 318 309 309 311 308 303 301 301 302 302 301 300 301 301
56 60 65 70 71 71 71 71 74 79 84 88 89 86 86 89 92 92 92 93 93 93 92 93 96 99 99 100 102 105 107 106 102 98 97 95 94 96 98 102 108 112 114 115 116 115 113 112 112 110 110 110 109 107 105 103 101 102 104 107 111 115 110 89 21 337 340 338 326 323 325 316 302 300 304 305 303 305 306 305 303 302 301 301 300
58 62 66 69 70 68 66 67 71 75 79 84 87 87 88 91 92 92 94 96 96 95 94 95 97 99 100 102 107 111 113 111 107 104 104 103 102 102 101 101 103 107 111 114 115 114 113 113 111 110 109 107 103 100 98 94 89 84 80 76 71 64 43 3 343 339 335 324 314 315 323 316 304 300 303 305 305 309 309 308 307 307 306 302 299
60 64 66 66 66 64 62 59 59 64 69 75 80 83 86 88 87 86 90 94 95 96 97 98 99 100 100 102 105 107 108 109 108 107 104 102 103 106 110 110 106 104 105 106 105 105 106 106 105 104 104 101 97 95 92 86 78 70 61 49 37 25 10 349 338 331 327 332 340 341 333 322 315 313 313 313 312 311 310 309 309 310 306 302 300
59 62 65 66 66 67 67 65 62 60 62 68 74 77 79 80 80 81 85 88 89 90 92 93 97 100 103 104 105 106 107 109 111 112 112 112 113 114 117 117 114 110 107 103 99 97 97 96 95 95 94 90 85 83 81 78 72 64 53 40 27 13 357 342 333 324 319 328 345 346 335 329 329 328 327 326 324 321 318 315 312 309 305 301 301
60 60 61 63 63 64 66 67 66 64 63 64 67 71 74 76 78 79 82 83 85 88 89 90 93 96 99 102 104 106 106 105 105 106 109 112 114 116 117 117 116 116 114 110 104 99 97 95 91 87 84 81 78 75 73 71 68 61 51 41 33 21 9 0 353 343 336 341 352 349 343 342 342 341 339 339 337 332 326 319 311 305 301 300 299
Height
776 780 784 788 792 795 798 801 805 808 811 813 815 816 818 820 822 825 826 828 830 832 834 836 838 840 842 843 845 847 848 850 851 853 854 855 856 858 859 860 861 862 863 863 863 863 863 864 864 864 865 865 865 866 865 866 866 866 866 866 866 867 867 867 865 863 861 861 860 859 859 858 856 855 854 852 851 850 848 847 845 844 843 842 841
771 775 779 784 787 790 794 798 801 804 807 809 811 813 816 817 820 822 824 826 827 829 831 833 835 837 839 840 842 844 846 847 849 850 852 853 854 855 857 858 859 860 861 861 861 862 862 862 862 863 863 863 863 863 863 863 864 864 864 864 864 865 865 865 864 861 859 858 858 857 856 855 853 852 851 850 848 847 845 844 842 841 840 839 838
767 771 775 779 782 786 790 794 797 800 803 805 807 810 812 814 817 819 821 823 824 826 828 830 832 833 835 838 839 841 843 844 846 848 849 850 851 853 854 855 856 858 858 859 860 860 860 860 861 861 861 861 861 861 861 861 861 862 862 862 862 862 863 862 861 860 857 856 856 854 853 852 851 849 848 847 845 843 841 839 839 838 838 836 835
764 767 771 775 779 783 786 790 793 796 798 801 803 806 809 811 813 815 817 820 821 823 825 827 829 830 832 834 836 838 839 841 843 845 846 847 849 850 851 853 854 855 856 857 857 858 858 858 859 859 859 859 859 859 859 859 859 859 859 859 860 860 860 860 859 858 856 854 853 852 851 850 848 847 846 844 841 839 837 836 835 835 835 835 832
759 763 767 771 775 778 782 785 789 791 794 797 799 802 805 808 810 812 814 816 818 820 822 824 826 827 829 831 832 834 836 838 840 841 843 844 846 847 849 850 851 852 853 854 855 856 856 856 856 857 857 857 857 856 856 856 856 857 857 857 858 858 858 858 857 856 855 853 852 850 849 848 846 844 843 841 838 836 833 832 833 833 833 832 830
755 759 763 766 770 774 777 781 784 787 790 793 795 799 802 804 806 808 810 812 815 817 818 820 822 823 825 827 829 831 833 834 836 838 840 842 843 844 846 847 848 849 850 851 852 853 853 854 854 854 854 854 854 854 853 854 854 854 854 855 855 856 855 855 854 854 854 852 851 849 848 846 844 841 840 839 836 833 830 830 831 831 829 827 826
751 754 758 762 765 769 772 776 779 783 786 789 792 795 798 800 803 805 807 809 811 813 815 817 818 820 822 824 826 828 829 831 833 834 836 838 840 841 843 844 845 846 847 848 849 850 851 851 851 851 851 851 851 851 851 851 851 851 852 852 853 853 853 852 852 851 851 850 849 847 845 843 841 838 837 835 833 831 829 828 828 827 826 824 822
746 750 754 757 760 764 767 771 775 779 782 785 789 791 794 797 799 801 804 805 807 809 811 813 815 817 818 820 822 824 826 827 829 831 833 835 837 838 840 841 842 843 845 845 846 847 848 848 848 848 848 848 848 848 848 848 848 848 849 850 851 851 851 850 850 849 848 848 846 845 843 840 837 835 833 833 831 829 828 827 826 825 824 822 819
742 746 750 753 756 759 764 768 771 775 779 782 785 788 790 793 796 798 800 802 804 806 808 810 812 813 815 817 819 821 822 824 825 827 829 831 833 835 836 838 839 840 842 843 844 844 845 845 846 846 846 845 845 845 845 845 846 846 847 847 848 849 849 849 848 847 846 845 843 842 839 836 833 831 830 831 830 828 826 825 824 822 821 819 817
737 741 745 748 752 756 760 764 768 772 775 778 781 784 787 790 792 795 797 799 801 803 805 807 808 810 812 813 815 817 818 819 821 822 825 827 830 832 833 835 836 837 839 840 841 841 842 842 843 843 843 842 842 841 841 841 842 843 844 845 845 846 847 847 846 844 843 841 840 838 836 833 831 831 830 830 829 827 824 823 821 819 818 816 814
732 736 740 744 749 753 757 761 764 768 771 774 778 781 784 787 789 791 793 795 798 800 802 804 805 807 809 810 812 813 814 815 816 818 821 823 826 828 830 832 833 834 836 836 837 838 839 839 840 840 840 839 839 838 837 837 838 839 840 841 842 843 844 844 843 842 840 838 836 835 834 831 829 830 829 829 828 826 823 821 819 816 815 813 811
729 733 737 742 746 749 753 757 761 764 768 771 774 777 781 783 785 788 790 792 794 796 798 800 802 804 806 807 808 809 810 811 813 814 817 819 822 825 827 828 830 831 832 833 834 835 836 836 837 837 837 837 836 836 834 833 834 835 836 837 837 839 840 841 840 839 838 836 834 833 831 829 827 827 829 828 827 825 821 818 816 814 812 811 810
726 730 734 738 742 745 750 754 757 761 764 767 771 774 777 780 781 784 786 789 791 793 795 797 799 801 802 804 805 806 807 808 809 811 813 815 818 821 823 825 826 827 828 829 830 831 832 833 834 834 834 834 834 834 832 831 831 831 833 833 833 834 835 836 836 836 835 834 832 830 829 827 826 826 827 827 825 824 820 816 814 812 810 808 807
724 727 731 734 738 742 746 750 754 757 761 764 768 770 773 775 778 781 783 786 788 790 792 794 795 797 799 800 802 803 804 805 806 807 809 812 814 817 820 822 823 824 825 826 827 828 829 830 830 831 831 831 831 831 830 829 829 829 829 829 829 830 831 831 831 831 831 830 828 825 824 825 826 825 824 825 824 822 820 816 813 810 807 804 804
721 725 728 731 735 738 742 746 750 754 758 761 764 767 769 772 775 778 780 782 784 786 788 790 792 793 795 797 798 799 800 802 803 804 806 808 811 814 816 819 820 821 821 822 823 824 825 826 827 827 828 828 828 828 828 827 827 827 827 827 826 827 827 827 827 826 826 825 823 821 821 823 825 823 822 822 821 820 819 816 813 809 805 800 798
718 721 725 728 731 734 738 743 747 750 754 757 760 763 766 769 772 774 777 779 781 783 785 786 788 790 791 792 794 795 796 797 799 800 802 805 808 811 813 815 816 817 818 819 820 821 822 823 824 824 825 825 825 825 825 825 825 824 824 823 823 823 824 824 824 823 822 821 820 819 819 821 822 821 820 819 818 817 817 815 812 809 806 800 795
714 717 720 724 727 731 735 739 743 747 750 753 756 759 762 765 768 770 773 775 777 779 780 782 783 785 786 788 789 790 792 793 794 796 799 801 804 807 809 811 812 813 814 815 816 817 818 819 820 821 822 822 822 822 823 823 822 822 821 820 820 819 820 820 821 820 820 819 819 818 819 819 819 818 817 815 814 814 813 811 809 807 805 801 795
710 713 717 720 724 728 732 735 739 743 746 749 753 756 759 761 764 766 768 770 772 774 776 777 779 780 781 783 784 786 787 789 790 792 794 797 799 802 805 806 808 809 810 811 812 813 814 815 816 818 818 819 819 820 820 820 820 819 818 817 816 816 816 817 818 818 818 817 817 817 817 817 816 815 814 813 812 811 810 808 806 806 804 801 797
705 709 713 717 721 725 728 732 735 739 742 746 749 752 755 758 760 763 765 767 769 770 772 773 775 776 777 779 780 782 783 784 786 787 789 792 794 797 800 802 803 804 806 807 808 809 810 811 812 813 815 816 816 816 817 817 817 816 816 815 813 812 813 815 815 815 815 814 814 814 814 813 812 812 811 810 809 808 807 805 805 804 802 800 798
702 707 711 715 718 722 725 728 732 735 739 742 746 749 752 755 757 759 761 763 765 767 768 770 771 772 774 775 776 778 779 780 781 782 784 787 789 792 795 797 798 800 801 803 804 805 807 808 808 809 810 812 812 813 813 814 814 814 813 812 811 811 812 812 812 812 811 810 810 810 810 809 809 809 809 808 807 805 804 804 803 803 801 799 797
701 705 709 712 716 719 722 725 729 732 736 740 743 746 749 751 754 756 758 760 762 763 765 766 768 769 770 771 773 774 775 776 777 778 780 782 784 787 790 791 794 796 798 799 801 802 803 804 805 805 806 807 808 809 810 810 811 811 810 809 809 809 809 809 809 808 808 807 807 807 807 807 807 807 807 806 805 804 804 803 803 801 800 798 796
699 702 706 709 713 716 719 723 726 730 734 737 740 743 745 748 751 753 755 757 759 761 762 764 765 766 767 768 769 770 771 772 773 774 775 777 779 782 784 787 790 792 794 796 797 798 799 801 801 802 803 804 805 806 806 807 808 807 807 806 806 806 806 806 807 807 806 805 805 804 804 805 806 806 805 804 804 803 803 802 801 800 799 798 796
696 700 703 707 710 713 717 720 723 727 730 733 736 739 742 745 748 750 753 755 756 759 760 761 762 763 764 765 766 767 768 769 770 770 771 773 775 777 780 783 786 789 791 792 794 795 796 797 798 799 800 801 802 802 803 804 804 804 804 803 803 802 803 804 805 805 804 803 803 803 804 804 804 804 803 802 802 801 800 799 799 798 796 794 793
695 698 702 705 708 712 715 718 721 724 727 730 734 736 739 742 745 747 750 752 754 755 757 758 759 760 761 761 762 763 765 765 766 767 768 770 772 774 777 780 783 786 788 790 791 792 793 794 794 795 796 798 798 799 800 800 801 801 801 801 800 800 801 802 803 803 803 803 804 804 804 804 804 803 802 801 800 799 798 798 797 796 795 792 791
693 697 700 703 707 710 713 716 719 722 725 728 730 733 736 738 741 743 746 748 750 751 753 754 756 757 757 758 758 759 761 762 762 763 764 766 769 771 773 776 779 783 786 788 789 789 789 790 791 792 793 795 795 796 797 797 798 799 799 799 799 799 799 800 800 801 802 803 803 802 802 802 802 801 800 800 799 798 798 797 796 795 793 791 788
692 696 699 702 705 708 711 714 716 719 722 725 727 730 732 735 737 739 742 744 745 747 748 750 751 753 754 754 755 756 756 757 758 759 760 762 765 767 770 773 776 779 782 784 785 786 786 788 789 790 791 792 793 793 794 795 796 797 797 798 798 798 798 798 799 799 800 801 800 800 800 800 800 799 798 798 798 798 798 797 795 793 792 790 787
692 695 697 700 703 706 708 711 714 716 719 721 724 726 728 731 733 735 737 739 740 742 744 745 746 748 749 751 751 752 752 754 755 756 757 759 761 763 766 769 772 775 778 780 781 783 784 785 786 787 788 789 791 791 792 793 794 795 796 797 798 798 798 798 799 799 800 800 799 799 799 799 798 798 798 798 798 798 797 796 794 793 792 790 788
691 694 696 699 702 704 706 709 711 713 715 718 720 722 724 726 728 730 732 734 735 737 739 740 742 743 744 746 747 748 749 750 751 753 755 756 758 760 762 764 767 769 772 774 777 780 781 782 784 786 787 788 789 790 791 792 793 795 796 797 798 799 799 799 800 800 800 800 800 799 799 799 798 798 798 798 798 798 797 796 795 794 793 791 789
690 693 696 698 700 703 705 707 709 710 713 715 717 719 720 722 724 726 729 731 732 733 734 735 738 739 740 742 743 744 745 746 748 750 752 754 756 757 759 760 762 764 767 770 773 777 779 781 783 784 786 787 789 790 791 792 793 795 796 797 798 799 799 800 801 801 801 801 801 800 800 799 799 799 799 799 799 798 798 797 796 795 794 792 790
690 692 694 696 699 701 703 705 707 709 710 712 715 716 718 720 721 724 726 727 729 731 732 733 735 736 737 739 740 741 743 744 746 748 750 752 754 756 757 758 760 761 764 767 771 774 776 779 781 782 783 785 786 787 789 791 792 794 796 797 798 799 799 800 801 801 801 801 801 801 801 801 800 800 800 800 800 799 798 798 797 796 795 793 791
689 691 693 695 697 699 702 703 705 707 709 711 713 715 717 719 721 722 724 725 727 729 731 732 733 734 736 738 739 740 742 744 745 747 749 751 753 755 756 757 759 760 762 765 769 772 774 776 778 779 781 782 783 785 787 788 791 793 795 796 797 798 799 799 800 801 801 801 801 802 802 802 802 801 801 801 800 799 799 798 797 796 795 793 791
688 689 691 694 696 698 701 702 703 706 708 710 712 714 717 719 720 722 723 724 726 728 729 731 732 734 735 737 738 739 741 743 745 747 748 750 752 753 755 756 758 760 762 764 767 769 771 773 774 775 777 779 780 782 784 786 789 791 793 794 796 798 799 798 799 800 800 800 801 802 802 802 802 802 801 801 800 799 798 797 796 795 794 792 790
687 688 690 693 695 697 699 700 702 704 706 708 711 713 715 716 718 720 722 724 725 727 728 729 732 733 735 736 737 738 740 742 744 746 747 749 751 752 754 756 758 760 762 764 765 767 768 769 771 773 775 776 778 780 783 786 788 790 792 793 795 796 798 798 799 799 799 799 800 801 801 802 802 801 801 800 799 798 797 796 795 794 793 791 788
687 689 691 693 695 697 698 700 702 703 705 707 709 711 713 713 714 717 721 723 726 727 728 729 730 732 734 735 735 736 738 740 742 744 746 748 750 751 753 755 757 759 761 762 763 764 765 767 769 772 774 775 777 780 782 785 787 789 791 793 794 796 798 798 799 799 798 797 799 800 800 800 800 800 800 799 798 797 796 794 794 793 791 790 787
689 690 692 694 696 697 699 700 701 702 704 706 707 709 710 711 713 715 718 721 724 726 728 729 730 731 732 732 733 734 736 738 740 742 744 746 747 749 751 754 757 759 760 761 762 763 765 767 769 771 773 774 777 779 782 784 785 787 789 791 793 795 796 797 798 798 796 796 797 798 799 799 799 799 798 797 796 795 794 793 792 791 790 788 786
690 692 694 695 696 697 699 700 701 702 704 705 706 707 708 710 712 715 718 720 723 725 728 730 730 731 731 730 731 732 734 736 738 741 742 745 746 747 749 753 756 758 760 760 761 763 765 768 769 771 773 775 777 779 782 783 784 786 788 790 791 792 793 794 796 797 795 795 796 798 798 798 798 797 797 795 795 793 792 791 790 789 788 787 785
693 694 695 695 696 697 698 699 701 703 704 705 705 706 708 710 712 715 718 721 723 725 727 729 730 730 731 731 732 732 734 736 739 741 742 745 746 747 747 749 753 756 758 759 762 764 766 768 770 772 774 777 778 779 780 782 783 784 786 788 789 790 791 791 792 794 794 794 795 797 797 796 796 796 795 793 792 792 791 790 789 787 786 785 783
697 697 697 697 698 698 699 701 702 704 704 705 706 707 708 710 713 715 718 720 722 724 727 729 730 731 732 734 735 734 735 737 740 742 744 746 747 748 747 747 749 751 754 758 761 764 766 769 771 773 775 777 778 779 779 781 782 784 785 787 787 788 789 789 790 791 792 793 794 795 795 795 794 794 793 792 791 790 789 788 787 786 784 783 781
700 701 702 702 701 701 702 702 703 704 705 706 707 708 709 711 713 716 718 719 722 724 726 728 731 732 734 736 737 737 738 739 741 743 745 747 749 750 750 750 750 751 753 757 761 763 766 769 771 773 775 776 778 778 779 780 782 784 785 786 787 787 788 789 789 790 791 792 793 793 793 793 792 792 791 790 789 789 788 787 786 784 783 781 779
705 706 706 705 705 704 704 703 704 704 706 707 709 710 712 713 714 715 717 719 721 724 726 728 731 734 736 738 739 739 740 741 742 744 747 749 751 752 753 754 754 755 756 758 761 764 767 770 772 773 775 776 777 778 779 781 783 784 785 786 786 786 787 788 789 789 790 791 791 791 791 790 790 790 789 788 788 788 787 785 784 783 781 780 778
708 709 710 709 708 707 707 707 707 707 708 709 711 712 714 715 716 716 718 719 721 724 727 729 732 735 737 739 740 740 741 741 743 745 748 751 753 754 756 757 757 758 759 761 763 766 768 770 772 774 775 777 778 779 780 781 783 783 784 784 784 785 786 787 788 789 789 789 789 789 788 788 788 788 788 787 787 786 784 783 781 780 779 778 776
712 713 713 712 712 712 712 712 711 710 711 712 714 715 717 717 718 719 720 721 722 725 727 729 732 736 738 740 740 741 741 743 745 747 749 752 754 756 758 759 760 761 763 765 766 767 768 770 772 774 775 777 778 779 780 781 781 781 782 782 783 783 784 785 787 788 788 788 787 787 787 787 787 787 786 786 785 784 782 781 780 778 776 775 773
716 716 716 715 715 716 717 716 715 714 714 715 717 718 719 720 721 722 722 723 725 726 728 731 733 736 739 742 742 742 743 746 748 750 752 754 756 758 760 761 762 764 765 766 768 769 769 770 771 773 774 775 776 777 778 779 779 779 780 781 782 783 784 784 786 787 787 786 786 786 786 786 786 785 784 783 783 782 781 780 778 776 775 773 772
718 718 719 718 718 718 719 719 718 717 717 718 719 720 721 722 724 724 725 727 728 730 731 733 735 737 740 744 745 745 746 749 752 753 755 757 758 760 762 762 764 765 766 767 768 770 771 771 771 772 773 774 775 775 776 777 777 778 779 780 781 782 783 784 784 785 785 785 785 785 785 785 784 784 783 782 782 781 780 778 777 775 774 772 770
719 720 720 721 721 721 722 722 722 721 721 721 722 723 725 726 727 728 729 730 732 733 735 737 738 740 743 746 747 748 750 752 755 757 759 761 762 764 765 766 766 767 767 768 769 771 772 772 771 772 773 774 774 775 776 777 778 778 779 780 781 781 782 783 783 783 783 783 784 784 784 784 783 783 782 782 781 780 779 777 776 774 773 771 769
721 721 722 722 723 724 725 726 726 726 725 725 726 727 728 729 730 732 733 734 735 736 737 739 741 743 745 747 748 749 752 755 758 760 762 764 766 767 768 769 769 770 770 771 771 772 772 772 772 773 774 775 776 778 778 779 779 780 780 780 781 782 782 782 782 782 782 782 782 782 783 783 782 782 782 781 780 779 778 776 775 773 771 769 768
724 724 724 725 726 728 729 730 731 730 730 730 731 731 732 733 734 735 736 737 738 739 740 741 743 744 746 747 749 751 754 757 760 762 764 766 768 769 771 772 772 772 773 773 774 774 775 775 775 775 777 778 779 780 780 781 781 781 781 782 782 782 782 782 782 781 781 781 781 781 781 781 781 781 780 779 779 777 776 775 773 771 770 768 767
727 727 727 728 730 731 733 734 735 734 734 735 735 735 737 737 738 739 740 741 742 743 744 745 746 747 748 749 750 752 755 757 760 762 765 766 768 770 771 773 774 775 775 776 776 777 778 778 778 779 780 781 782 782 783 783 783 783 783 783 783 783 783 782 782 782 781 781 781 780 780 780 780 779 778 777 777 776 775 774 772 770 769 768 766
730 730 730 731 732 733 735 737 739 739 739 739 740 740 741 742 742 743 744 745 745 747 748 748 749 750 751 752 753 754 756 758 760 763 765 767 768 769 771 773 774 776 777 778 779 780 780 781 781 782 783 783 784 784 785 785 786 786 786 786 785 785 784 784 783 783 782 781 781 780 780 779 779 778 777 776 775 774 773 772 771 770 769 767 765
733 732 733 734 735 736 737 740 742 743 744 744 745 745 745 746 747 748 748 749 749 750 751 752 753 754 755 756 757 758 759 761 763 765 766 767 768 770 771 773 775 776 777 779 781 782 783 784 784 785 785 786 787 787 787 787 788 788 788 788 787 787 786 785 784 784 783 782 781 781 780 779 778 777 776 775 774 773 773 772 770 769 768 766 765
736 736 737 738 739 739 741 743 745 747 748 749 750 750 750 751 751 752 753 753 754 754 755 756 757 758 759 760 761 762 764 766 767 768 769 769 770 770 772 774 775 776 777 779 781 784 785 786 787 788 788 788 789 789 789 789 789 789 790 789 789 788 787 786 785 784 783 782 781 780 779 778 777 776 775 774 773 773 772 771 770 769 767 765 764